International Skating Union - Official Site

ISU European Championships 2018
January 5-7, 2018

Draw | Lap Times | Index

Referee: Ekaterina  PILSHCHIKOVA  (RUS)
Starter: Roman  DANILOV  (RUS)
StartTime: EndTime: Air Temp: Ice Temp: Humidity:
16:49 17:05 15.3 ℃ -6.3 ℃ 37%
Result Team Pursuit Men
Rankings as of Jan 7 2018 5:18PM
Rank: No.: Team: Nation: Time: Behind:
Total 5
1 15 Netherlands (24) Jan Blokhuijsen (25) Marcel Bosker (30) Simon Schouten (26) Thomas Krol NED NED 3:42.790.5 - 17.98 - (17.9)
1.0 - 31.42 - (13.4)
1.5 - 44.98 - (13.5)
2.0 - 58.44 - (13.4)
2.5 - 1:11.88 - (13.4)
3.0 - 1:25.55 - (13.6)
3.5 - 1:39.30 - (13.7)
4.0 - 1:53.12 - (13.8)
4.5 - 2:06.70 - (13.5)
5.0 - 2:20.23 - (13.5)
5.5 - 2:34.01 - (13.7)
6.0 - 2:47.61 - (13.6)
6.5 - 3:01.27 - (13.6)
7.0 - 3:15.08 - (13.8)
7.5 - 3:29.03 - (13.9)
8.0 - 3:42.79 - (13.7)
2 20 Russia (53) Danila Semerikov (48) Sergey Gryaztsov (52) Alexander Rumyantsev (54) Danil Sinitsyn RUS RUS 3:44.590.5 - 18.15 - (18.1)
1.0 - 31.66 - (13.5)
1.5 - 45.12 - (13.4)
2.0 - 58.57 - (13.4)
2.5 - 1:12.13 - (13.5)
3.0 - 1:25.80 - (13.6)
3.5 - 1:39.22 - (13.4)
4.0 - 1:52.56 - (13.3)
4.5 - 2:06.36 - (13.7)
5.0 - 2:20.18 - (13.8)
5.5 - 2:33.93 - (13.7)
6.0 - 2:47.73 - (13.7)
6.5 - 3:01.57 - (13.8)
7.0 - 3:15.50 - (13.9)
7.5 - 3:29.76 - (14.2)
8.0 - 3:44.59 - (14.8)
1.80
3 18 Poland (46) Jan Szymanski (47) Adrian Wielgat (41) Zbigniew Bródka POL POL 3:52.600.5 - 18.20 - (18.1)
1.0 - 31.88 - (13.6)
1.5 - 45.86 - (13.9)
2.0 - 59.92 - (14.0)
2.5 - 1:14.04 - (14.1)
3.0 - 1:27.75 - (13.7)
3.5 - 1:41.45 - (13.7)
4.0 - 1:55.40 - (13.9)
4.5 - 2:09.68 - (14.2)
5.0 - 2:24.19 - (14.5)
5.5 - 2:38.85 - (14.6)
6.0 - 2:53.56 - (14.7)
6.5 - 3:08.35 - (14.7)
7.0 - 3:23.02 - (14.6)
7.5 - 3:37.69 - (14.6)
8.0 - 3:52.60 - (14.9)
9.81
4 17 Norway (39) Fredrik van der Horst (35) Runar Njåtun Krøyer (34) Magnus Bakken Haugli (33) Hallgeir Engebråten NOR NOR 3:53.020.5 - 18.54 - (18.5)
1.0 - 32.25 - (13.7)
1.5 - 45.87 - (13.6)
2.0 - 59.81 - (13.9)
2.5 - 1:13.85 - (14.0)
3.0 - 1:28.26 - (14.4)
3.5 - 1:42.50 - (14.2)
4.0 - 1:56.61 - (14.1)
4.5 - 2:10.81 - (14.2)
5.0 - 2:25.09 - (14.2)
5.5 - 2:39.44 - (14.3)
6.0 - 2:54.13 - (14.6)
6.5 - 3:09.02 - (14.8)
7.0 - 3:24.09 - (15.0)
7.5 - 3:38.74 - (14.6)
8.0 - 3:53.02 - (14.2)
10.23
5 11 Italy (19) Andrea Giovannini (22) Nicola Tumolero (17) Riccardo Bugari (20) Michele Malfatti ITA ITA 3:53.080.5 - 17.95 - (17.9)
1.0 - 31.58 - (13.6)
1.5 - 45.32 - (13.7)
2.0 - 59.32 - (14.0)
2.5 - 1:13.45 - (14.1)
3.0 - 1:27.12 - (13.6)
3.5 - 1:40.96 - (13.8)
4.0 - 1:54.68 - (13.7)
4.5 - 2:08.70 - (14.0)
5.0 - 2:23.22 - (14.5)
5.5 - 2:37.93 - (14.7)
6.0 - 2:52.99 - (15.0)
6.5 - 3:07.95 - (14.9)
7.0 - 3:22.81 - (14.8)
7.5 - 3:37.78 - (14.9)
8.0 - 3:53.08 - (15.2)
10.29